Location: East Irvine
(33.6759°N, 117.7598°W)
Time: 22:11:28
(UTC+00:00)

Cosmos 44 Rocket - Pass Details

Date: 15 November 2025
Orbit: 637 x 741 km, 65.1° (Epoch: 13 December)

Event Time Altitude Azimuth Distance (km) Brightness Sun altitude
Rises 01:29:01 0° 197° (SSW) 2,945 7.0 -8.8°
Reaches altitude 10° 01:31:18 10° 193° (SSW) 2,051 6.1 -9.3°
Maximum altitude 01:35:52 58° 115° (ESE) 774 3.3 -10.2°
Drops below altitude 10° 01:40:35 10° 36° (NE) 2,124 5.3 -11.1°
Enters shadow 01:41:02 - 36° (NE) 2,298 5.5 -11.2°
